Wind_Speed
79 84 84 71 61 49 38 30 22 18 22 24 34 45 52 54 54 54 60 72 85 92 97 90 82 80 83 76 74 70 71 68 64 61 57 54 51 45 40 38 39 44 50 50
80 84 85 74 57 46 41 29 24 16 15 18 28 36 44 50 51 47 51 64 83 92 98 91 85 83 82 81 77 65 77 73 70 67 59 56 52 46 43 39 38 40 49 51
80 83 82 75 61 38 38 32 21 13 10 17 23 30 37 45 48 43 44 59 79 89 94 92 87 84 83 82 67 80 74 69 76 70 63 60 58 54 54 49 42 39 44 52
79 82 78 73 64 47 32 30 22 11 9 14 19 21 30 39 42 42 41 52 73 82 88 90 88 88 90 83 86 82 81 78 80 75 70 66 61 57 52 43 40 39 38 46
76 81 78 71 67 54 41 26 20 10 7 15 20 22 27 35 39 40 40 49 65 78 79 85 87 87 91 88 84 80 93 55 85 77 73 68 64 59 56 47 45 42 40 40
76 79 78 71 63 51 41 30 19 10 4 16 20 24 25 32 35 39 41 48 61 74 76 79 87 88 87 88 80 80 76 89 71 75 74 70 67 60 54 55 51 47 44 42
74 74 76 72 62 53 39 30 19 10 2 14 20 20 23 28 34 39 41 48 58 68 70 72 84 85 91 85 87 67 91 84 79 77 77 76 67 62 57 54 52 52 49 46
74 74 75 75 71 62 50 38 24 13 3 9 22 21 23 27 35 38 43 48 57 65 72 60 77 83 84 84 84 86 81 84 82 85 68 80 72 67 61 57 55 52 51 50
70 72 73 74 71 64 54 41 31 14 7 6 16 24 25 27 34 38 43 50 55 68 74 60 65 83 92 73 80 68 87 79 79 79 71 79 77 72 65 62 58 56 55 53
67 68 70 70 69 63 56 46 33 22 9 5 11 22 27 27 34 36 41 50 54 67 78 58 68 78 90 80 77 67 70 86 94 65 78 69 78 75 70 66 64 60 59 59
67 68 67 68 69 66 57 49 40 28 15 9 10 17 25 29 33 35 38 48 56 72 76 69 64 71 95 90 81 51 62 75 85 68 53 72 73 79 73 69 68 64 62 60
64 66 67 66 65 65 60 51 43 32 22 14 12 15 23 29 31 35 36 42 53 78 73 72 59 67 86 88 84 69 53 73 71 69 84 71 74 80 79 76 72 68 65 63
61 63 65 65 65 63 59 55 46 36 28 18 13 16 21 29 34 35 36 37 50 66 79 54 54 67 66 85 92 94 80 71 62 63 64 72 74 72 77 81 76 71 68 65
60 60 61 61 62 62 60 57 52 44 31 21 16 14 20 26 34 37 37 35 45 57 80 63 59 64 68 66 79 83 91 83 70 59 71 69 73 80 77 74 77 74 74 67
60 59 58 59 59 60 61 58 55 48 39 30 18 14 19 26 33 38 43 36 40 48 67 74 63 48 76 68 65 70 80 84 76 66 70 57 74 62 88 66 60 69 60 71
59 60 57 56 58 60 60 58 56 53 46 38 28 17 15 23 32 39 46 45 40 42 54 76 67 68 57 75 69 66 75 83 79 78 78 78 63 76 65 63 61 67 76 68
58 60 59 56 58 58 61 60 56 54 50 45 34 24 16 18 28 36 42 50 48 47 43 67 75 62 62 65 77 71 71 75 82 81 79 75 69 72 74 57 66 73 66 64
56 60 59 57 58 59 60 62 60 54 53 48 42 29 19 18 21 34 41 47 53 51 49 55 80 70 64 55 67 82 74 72 78 83 82 79 79 75 63 58 72 76 61 53
55 57 59 58 58 58 59 61 62 59 53 49 44 38 26 18 21 27 36 45 51 54 53 52 53 73 81 71 57 69 79 71 73 79 82 78 77 79 78 67 53 61 65 60
54 55 58 58 58 60 61 62 63 63 58 55 50 42 34 25 18 26 28 40 49 53 57 57 53 57 72 78 68 64 78 81 76 78 81 79 76 76 78 81 84 69 66 61
53 53 56 57 58 57 61 61 64 63 62 60 54 47 40 31 23 21 28 32 43 52 55 62 61 57 60 74 85 73 69 77 80 78 78 79 79 77 80 78 80 82 80 74
51 53 54 57 58 57 60 62 62 63 62 60 57 51 43 35 28 23 24 30 35 45 54 57 64 65 59 59 77 81 78 73 70 69 77 82 82 80 80 81 81 82 81 85
49 51 51 54 55 56 58 59 62 63 64 61 59 54 48 39 31 25 22 24 30 37 45 54 58 64 65 58 59 65 79 86 77 71 70 75 79 81 82 82 82 83 83 81
48 50 51 55 57 57 59 60 62 64 64 64 61 56 51 44 35 28 24 22 25 32 38 44 54 58 62 63 63 62 63 75 81 77 70 75 78 80 82 83 84 83 82 79
46 50 53 54 58 60 60 61 61 63 64 64 62 58 52 46 39 30 25 22 23 28 35 40 45 56 62 66 67 67 63 60 71 76 79 76 78 78 77 81 79 80 81 83
46 49 52 54 58 62 63 63 63 63 65 65 63 60 54 48 42 34 28 23 22 26 29 36 40 45 56 63 68 69 66 64 62 64 75 82 81 78 80 79 78 78 78 79
Wind_Direction
343 345 345 348 344 336 334 325 318 284 267 239 231 226 220 218 219 218 218 209 205 207 209 207 205 203 204 205 206 207 203 202 201 203 202 202 200 202 202 206 208 206 203 199
347 349 350 353 352 338 339 336 326 298 268 234 229 224 223 214 218 216 214 207 203 204 208 205 204 203 202 204 205 211 204 209 201 204 202 204 201 205 203 204 208 208 207 205
352 354 354 355 355 349 335 338 331 309 265 224 223 220 221 214 213 214 211 206 202 202 206 203 202 201 201 204 202 208 207 201 198 201 201 204 200 198 199 198 203 206 208 208
355 357 359 356 355 355 352 340 339 319 255 208 213 217 218 213 210 211 208 204 202 202 204 203 201 201 199 202 205 207 209 216 205 201 202 204 203 203 201 200 206 209 209 210
357 359 1 359 360 356 356 349 345 331 250 194 197 205 211 209 207 207 206 202 203 203 199 204 198 201 202 202 205 208 209 207 204 206 205 206 205 204 200 202 203 208 209 209
358 1 3 4 1 359 356 354 353 344 256 200 199 204 209 204 203 206 204 200 203 204 196 206 198 201 201 202 204 211 210 213 213 204 206 210 208 209 206 206 204 206 211 209
360 2 4 7 8 4 3 359 358 360 283 206 202 205 203 199 200 204 206 202 203 201 192 207 200 200 200 203 203 206 211 212 213 203 210 211 212 212 210 213 216 211 208 211
1 3 5 6 8 8 7 7 4 4 340 216 208 211 197 200 199 203 205 204 203 199 196 196 203 201 202 205 210 215 210 213 215 220 213 210 213 214 215 214 217 217 217 211
2 4 4 6 8 9 10 7 5 357 337 231 216 220 203 204 203 204 208 205 205 197 192 198 202 201 202 204 204 198 210 208 214 219 205 208 212 215 216 217 218 219 219 220
3 4 6 7 8 10 10 9 4 0 344 272 230 219 216 211 209 209 209 207 206 197 193 200 199 202 200 197 204 215 213 213 214 223 216 217 213 214 217 219 220 221 221 221
1 4 5 7 7 9 11 10 7 1 346 302 250 227 223 217 213 213 213 210 205 193 199 205 202 204 204 209 206 200 209 216 215 210 206 217 215 215 217 219 222 222 223 223
3 3 4 7 8 8 9 10 8 3 352 322 270 237 228 224 219 217 217 214 207 197 195 198 205 203 209 211 208 198 204 211 207 213 223 210 213 218 218 220 222 224 224 224
3 1 4 7 9 8 7 8 10 7 356 340 298 256 233 228 222 222 220 220 213 209 210 204 211 204 205 211 214 214 215 217 218 215 213 212 216 217 220 219 218 225 223 225
4 4 2 5 7 7 7 6 9 9 3 350 324 271 239 232 226 224 224 226 217 212 207 203 208 211 206 207 217 223 225 224 227 218 220 211 217 216 218 224 220 223 225 227
3 5 3 5 6 7 7 6 6 9 4 355 339 301 258 236 230 225 224 225 222 219 216 211 208 201 206 210 214 219 223 225 224 226 218 211 205 215 217 220 230 221 219 223
1 2 5 4 6 7 7 9 6 7 5 1 345 327 288 247 235 229 226 227 227 222 221 215 214 213 212 212 215 215 218 221 224 224 221 217 220 215 210 230 215 223 224 229
359 0 2 3 5 6 7 7 8 4 5 2 358 336 306 271 242 235 231 230 229 224 224 220 217 210 214 210 212 215 219 221 224 225 223 225 225 216 223 223 219 222 228 230
358 357 0 3 3 5 6 6 6 7 4 1 358 352 321 287 260 240 234 231 231 227 225 222 219 212 213 210 215 216 219 218 224 227 226 224 225 226 218 230 231 226 224 227
356 356 356 359 3 4 6 6 4 6 3 1 359 355 345 304 272 257 238 235 232 232 226 227 225 225 224 224 217 219 218 220 222 225 227 227 229 229 230 216 213 217 224 227
354 356 355 356 0 360 2 4 4 3 3 1 360 357 350 336 291 266 250 237 234 233 233 229 230 227 228 229 224 220 220 222 227 225 226 228 230 230 231 232 232 221 227 224
352 355 353 356 358 359 358 2 2 0 0 2 358 356 351 342 325 283 263 246 236 233 232 231 230 229 227 230 228 223 222 224 226 228 227 228 230 230 230 232 236 239 231 227
350 352 353 355 356 358 358 359 0 359 359 360 356 354 352 344 335 313 276 256 243 236 233 231 230 231 231 227 228 231 230 224 225 227 228 229 231 232 231 231 234 237 239 242
348 350 353 353 354 355 357 357 357 358 356 358 355 353 350 346 337 325 301 268 251 242 238 233 231 231 232 231 231 233 235 232 228 227 229 229 233 234 235 234 233 236 238 241
344 348 352 352 353 355 356 355 355 356 354 354 353 351 349 345 338 328 312 284 263 247 241 237 233 231 233 233 232 232 234 235 235 230 230 232 233 234 235 236 235 234 237 240
342 347 350 352 352 355 355 354 353 354 352 352 351 349 349 344 338 329 319 300 278 256 244 239 236 233 230 232 234 233 233 235 235 235 236 233 233 234 234 236 234 236 238 238
343 346 348 351 352 353 354 352 351 352 351 350 349 346 347 344 339 330 321 308 286 266 250 243 239 237 232 230 230 233 234 234 233 235 233 231 235 236 234 235 235 234 236 239
Height
5591 5566 5543 5517 5493 5477 5470 5462 5458 5453 5452 5457 5458 5463 5473 5486 5497 5509 5522 5539 5560 5578 5593 5612 5631 5647 5661 5677 5690 5699 5704 5715 5725 5732 5741 5751 5761 5770 5778 5784 5791 5797 5804 5811
5581 5555 5527 5505 5490 5472 5465 5458 5454 5450 5448 5452 5451 5458 5465 5477 5488 5500 5511 5526 5544 5561 5577 5599 5618 5633 5650 5663 5677 5675 5692 5702 5714 5723 5734 5744 5756 5764 5770 5778 5784 5791 5798 5804
5571 5547 5522 5503 5489 5477 5462 5456 5451 5447 5445 5446 5449 5454 5460 5471 5483 5494 5504 5517 5531 5547 5562 5584 5604 5620 5637 5650 5662 5665 5674 5667 5698 5713 5722 5733 5743 5751 5755 5764 5774 5783 5790 5798
5566 5542 5520 5502 5485 5473 5463 5454 5448 5445 5444 5445 5448 5454 5459 5468 5479 5489 5499 5509 5522 5536 5551 5570 5590 5606 5626 5634 5647 5660 5672 5678 5694 5699 5710 5723 5734 5745 5756 5763 5770 5778 5784 5791
5566 5544 5523 5500 5483 5468 5461 5454 5448 5444 5443 5444 5447 5453 5456 5465 5476 5485 5494 5503 5513 5526 5542 5558 5578 5595 5610 5624 5637 5647 5662 5665 5676 5693 5703 5714 5724 5734 5745 5753 5761 5769 5777 5784
5561 5542 5525 5502 5483 5470 5460 5454 5449 5445 5444 5446 5447 5452 5456 5464 5473 5481 5489 5497 5506 5518 5535 5548 5567 5583 5601 5614 5626 5637 5650 5665 5672 5678 5694 5708 5718 5727 5736 5744 5752 5761 5769 5777
5564 5545 5526 5511 5499 5478 5466 5456 5451 5448 5446 5449 5450 5452 5457 5462 5470 5478 5485 5492 5500 5511 5530 5541 5559 5576 5590 5603 5617 5626 5639 5651 5660 5672 5683 5698 5712 5721 5729 5738 5747 5755 5762 5770
5557 5539 5525 5508 5490 5476 5465 5457 5452 5450 5449 5450 5452 5453 5457 5460 5466 5473 5479 5487 5495 5507 5523 5537 5550 5566 5581 5594 5604 5619 5630 5641 5656 5666 5674 5688 5700 5713 5723 5730 5737 5745 5754 5762
5558 5542 5523 5508 5494 5483 5470 5462 5456 5452 5450 5450 5451 5454 5457 5459 5464 5469 5475 5482 5490 5502 5515 5527 5540 5556 5571 5584 5596 5604 5621 5631 5643 5651 5662 5676 5687 5703 5712 5721 5729 5736 5743 5752
5559 5544 5529 5514 5500 5487 5475 5465 5459 5453 5451 5450 5450 5452 5456 5458 5461 5465 5471 5478 5486 5497 5510 5521 5531 5546 5561 5571 5589 5598 5610 5622 5632 5642 5656 5665 5676 5691 5699 5710 5719 5727 5734 5741
5559 5546 5532 5518 5502 5491 5481 5469 5460 5455 5452 5450 5450 5452 5452 5455 5458 5462 5467 5473 5481 5491 5504 5515 5525 5536 5549 5560 5574 5584 5599 5611 5624 5637 5644 5656 5665 5678 5687 5697 5707 5716 5724 5732
5561 5546 5532 5520 5506 5492 5481 5472 5464 5458 5453 5450 5449 5451 5450 5452 5456 5459 5463 5468 5475 5486 5496 5509 5516 5528 5541 5551 5562 5570 5581 5593 5608 5620 5631 5644 5653 5665 5674 5685 5694 5703 5712 5719
5559 5547 5537 5524 5512 5497 5485 5476 5468 5460 5453 5449 5447 5448 5447 5449 5452 5456 5460 5464 5472 5481 5487 5498 5509 5521 5530 5543 5553 5560 5570 5583 5596 5609 5620 5631 5639 5650 5662 5673 5679 5689 5698 5707
5561 5547 5532 5519 5508 5498 5489 5478 5469 5460 5454 5449 5445 5443 5444 5445 5448 5452 5455 5459 5465 5473 5482 5490 5501 5510 5521 5531 5543 5552 5559 5571 5581 5597 5606 5617 5627 5638 5649 5658 5667 5676 5685 5694
5562 5551 5538 5525 5514 5503 5493 5481 5471 5463 5454 5448 5444 5439 5438 5440 5443 5447 5450 5455 5460 5465 5474 5484 5492 5500 5510 5521 5532 5542 5552 5561 5572 5578 5594 5604 5615 5626 5639 5645 5652 5663 5672 5681
5562 5552 5542 5529 5519 5507 5496 5485 5472 5463 5455 5447 5440 5437 5434 5435 5437 5441 5443 5448 5454 5459 5465 5476 5483 5491 5501 5509 5521 5531 5541 5553 5562 5572 5582 5590 5602 5612 5624 5632 5642 5648 5662 5667
5561 5552 5541 5530 5518 5507 5496 5486 5476 5464 5455 5446 5440 5434 5430 5429 5430 5433 5437 5440 5446 5453 5458 5466 5475 5483 5492 5498 5508 5520 5530 5541 5552 5562 5572 5579 5590 5600 5611 5619 5626 5637 5643 5651
5561 5549 5540 5531 5518 5507 5497 5485 5476 5466 5454 5445 5438 5432 5427 5424 5423 5424 5428 5432 5437 5444 5450 5457 5464 5472 5480 5488 5496 5506 5517 5526 5537 5549 5558 5568 5577 5586 5597 5603 5611 5620 5630 5635
5559 5548 5536 5527 5517 5510 5498 5487 5476 5466 5458 5447 5438 5429 5423 5420 5417 5415 5419 5423 5427 5432 5441 5447 5453 5461 5470 5478 5485 5494 5503 5513 5523 5532 5544 5554 5563 5572 5581 5589 5597 5605 5615 5620
5557 5547 5535 5524 5513 5502 5493 5483 5473 5464 5457 5446 5436 5427 5419 5414 5411 5408 5410 5412 5417 5423 5428 5437 5443 5450 5458 5466 5475 5481 5491 5501 5511 5519 5529 5540 5550 5561 5568 5576 5581 5590 5601 5607
5554 5545 5534 5523 5512 5503 5491 5481 5470 5461 5455 5440 5431 5423 5416 5409 5405 5402 5400 5402 5405 5411 5417 5424 5432 5440 5448 5454 5463 5470 5477 5486 5497 5506 5515 5525 5535 5546 5555 5562 5569 5576 5584 5592
5551 5541 5531 5520 5509 5502 5490 5480 5470 5460 5449 5440 5429 5420 5412 5405 5399 5395 5391 5392 5394 5397 5404 5411 5420 5427 5434 5441 5450 5457 5465 5473 5482 5492 5501 5509 5518 5528 5539 5548 5556 5563 5571 5577
5548 5539 5529 5518 5507 5496 5486 5476 5465 5456 5446 5438 5427 5418 5408 5400 5393 5388 5384 5382 5383 5386 5389 5395 5403 5412 5421 5428 5435 5443 5450 5459 5468 5477 5487 5494 5502 5511 5521 5532 5541 5549 5556 5564
5544 5534 5526 5515 5505 5494 5483 5473 5463 5453 5443 5434 5424 5413 5404 5395 5388 5382 5378 5375 5374 5375 5378 5382 5388 5396 5403 5411 5420 5428 5435 5443 5452 5461 5470 5479 5488 5495 5504 5514 5524 5533 5541 5549
5540 5531 5521 5512 5501 5491 5480 5470 5460 5450 5440 5430 5419 5409 5400 5390 5383 5377 5372 5368 5366 5365 5367 5370 5375 5381 5389 5397 5404 5413 5421 5427 5434 5443 5453 5463 5471 5480 5487 5496 5505 5515 5524 5533
5535 5526 5517 5507 5497 5486 5476 5466 5456 5446 5436 5425 5415 5404 5395 5386 5377 5370 5365 5361 5358 5356 5357 5359 5362 5366 5373 5381 5389 5396 5405 5413 5420 5427 5436 5446 5454 5463 5471 5478 5486 5496 5505 5514